Millville, NJ

3:28 AM EDT on July 29, 2016 (GMT -0400)
Millville Municipal

Weather History for KMIV - October, 2013

Change the Weather History Date:

Monday, October 21, 2013

  Actual Average Record
Temperature  
Mean Temperature 50 °F -  
Max Temperature 66 °F 65 °F 83 °F (1984)
Min Temperature 36 °F 42 °F 24 °F (1952)
Degree Days  
Heating Degree Days 15    
Moisture  
Dew Point 41 °F    
Average Humidity 75    
Maximum Humidity 97    
Minimum Humidity 34    
Precipitation  
Precipitation 0.00 in - - ()
Sea Level Pressure  
Sea Level Pressure 30.10 in    
Wind  
Wind Speed 2 mph (SSW)    
Max Wind Speed 9 mph    
Max Gust Speed 17 mph    
Visibility 10 miles    
Events      
Averages and records for this station are not official NWS values.
T = Trace of Precipitation, MM = Missing Value Source: NWS Daily Summary

Daily Weather History Graph

Daily Weather History Graph

Search for Another Location

Airport or City:

Trip Planner

Search our weather history database for the weather conditions in past years. The results will help you decide how hot, cold, wet, or windy it might be!

Date:

Astronomy

Oct. 21, 2013 Rise Set
Actual Time 7:16 AM EDT 6:12 PM EDT
Civil Twilight 6:49 AM EDT 6:39 PM EDT
Nautical Twilight 6:18 AM EDT 7:11 PM EDT
Astronomical Twilight 5:46 AM EDT 7:42 PM EDT
Moon 8:04 PM EDT (10/21) 9:48 AM EDT (10/21)
Length of Visible Light 11h 50m
Length of Day
10h 55m
Waning Gibbous, 93% of the Moon is Illuminated
Oct 21
Waning Gibbous
Oct 26
Last Quarter
Nov 3
New
Nov 10
First Quarter
Nov 17
Full

Hourly Weather History & Observations

Time (EDT) Temp. Dew Point Humidity Pressure Visibility Wind Dir Wind Speed Gust Speed Precip Events Conditions
12:54 AM 37.9 °F 37.0 °F 97% 30.10 in 10.0 mi Calm Calm - N/A   Clear
1:54 AM 37.0 °F 36.0 °F 96% 30.11 in 10.0 mi Calm Calm - N/A   Clear
2:54 AM 39.0 °F 37.0 °F 93% 30.12 in 10.0 mi Calm Calm - N/A   Clear
3:54 AM 37.0 °F 36.0 °F 96% 30.12 in 9.0 mi Calm Calm - N/A   Clear
4:54 AM 36.0 °F 35.1 °F 97% 30.13 in 10.0 mi Calm Calm - N/A   Clear
5:54 AM 36.0 °F 35.1 °F 97% 30.14 in 9.0 mi Calm Calm - N/A   Clear
6:54 AM 36.0 °F 35.1 °F 97% 30.15 in 9.0 mi Calm Calm - N/A   Clear
7:54 AM 37.9 °F 37.0 °F 97% 30.16 in 10.0 mi Calm Calm - N/A   Clear
8:54 AM 48.0 °F 44.1 °F 86% 30.17 in 10.0 mi Calm Calm - N/A   Clear
9:54 AM 57.0 °F 48.9 °F 74% 30.17 in 10.0 mi West 3.5 mph - N/A   Clear
10:54 AM 62.1 °F 43.0 °F 50% 30.15 in 10.0 mi Variable 3.5 mph - N/A   Clear
11:54 AM 64.0 °F 41.0 °F 43% 30.14 in 10.0 mi West 8.1 mph - N/A   Clear
12:54 PM 64.9 °F 39.0 °F 39% 30.12 in 10.0 mi WSW 5.8 mph - N/A   Clear
1:54 PM 64.9 °F 36.0 °F 34% 30.11 in 10.0 mi Variable 4.6 mph - N/A   Clear
2:54 PM 64.0 °F 36.0 °F 35% 30.08 in 10.0 mi South 9.2 mph 17.3 mph N/A   Clear
3:54 PM 63.0 °F 35.1 °F 35% 30.07 in 10.0 mi Variable 4.6 mph - N/A   Clear
4:54 PM 61.0 °F 43.0 °F 52% 30.05 in 10.0 mi SSE 4.6 mph - N/A   Clear
5:54 PM 59.0 °F 45.0 °F 60% 30.05 in 10.0 mi SSE 4.6 mph - N/A   Clear
6:54 PM 55.0 °F 46.0 °F 72% 30.05 in 10.0 mi SE 5.8 mph - N/A   Clear
7:54 PM 51.1 °F 46.0 °F 83% 30.05 in 10.0 mi Calm Calm - N/A   Clear
8:54 PM 50.0 °F 46.9 °F 89% 30.05 in 10.0 mi Calm Calm - N/A   Clear
9:54 PM 48.9 °F 46.0 °F 90% 30.04 in 10.0 mi Calm Calm - N/A   Clear
10:54 PM 48.0 °F 46.0 °F 93% 30.01 in 10.0 mi Calm Calm - N/A   Clear
11:54 PM 46.9 °F 45.0 °F 93% 30.00 in 10.0 mi Calm Calm - N/A   Clear